Overview Statistics Trail Chart Weather Telemetry Raw packets
 

This is the latest recevied weather packets stored in our database for station/object KB1WCR. If no packets are shown the sender has not sent any weather packets the latest 10 day(s).

<< 9 10 11 12 13 14 15 >>
Time Temp. Humidity Pressure Rain* Wind** Luminosity Snow
1788365490 20.56° C 78% 1023.3 hPa 0 mm - 282 W/m² -
1788365186 20.56° C 78% 1023.3 hPa 0 mm - 324 W/m² -
1788364880 20.56° C 76% 1023.3 hPa 0 mm - 378 W/m² -
1788364573 20.56° C 76% 1023.4 hPa 0 mm - 365 W/m² -
1788364272 20.56° C 77% 1023.4 hPa 0 mm - 364 W/m² -
1788363967 20.56° C 76% 1023.4 hPa 0 mm - 350 W/m² -
1788363663 20.56° C 75% 1023.5 hPa 0 mm - 356 W/m² -
1788363361 20° C 75% 1023.6 hPa 0 mm - 323 W/m² -
1788363056 20° C 73% 1023.7 hPa 0 mm - 305 W/m² -
1788362753 20.56° C 71% 1023.6 hPa 0 mm - 324 W/m² -
1788362448 20.56° C 72% 1023.5 hPa 0 mm - 419 W/m² -
1788362144 20.56° C 75% 1023.5 hPa 0 mm - 498 W/m² -
1788361853 20.56° C 73% 1023.4 hPa 0 mm - 575 W/m² -
1788361538 20° C 77% 1023.2 hPa 0 mm - 411 W/m² -
1788361234 19.44° C 79% 1023.2 hPa 0 mm - 395 W/m² -
1788360929 20° C 76% 1023.3 hPa 0 mm - 381 W/m² -
1788360629 20° C 77% 1023.2 hPa 0 mm - 358 W/m² -
1788360326 20° C 76% 1023.2 hPa 0 mm - 380 W/m² -
1788360026 19.44° C 77% 1023.3 hPa 0 mm - 390 W/m² -
1788359720 20° C 77% 1023.3 hPa 0 mm - 340 W/m² -
1788359416 19.44° C 80% 1023.4 hPa 0 mm - 257 W/m² -
1788359112 19.44° C 79% 1023.3 hPa 0 mm - 214 W/m² -
1788358807 19.44° C 81% 1023.1 hPa 0 mm - 228 W/m² -
1788358501 19.44° C 82% 1023 hPa 0 mm - 216 W/m² -
1788358196 19.44° C 83% 1023.2 hPa 0 mm - 198 W/m² -

* Rain latest hour (hover to see other rain measurements)
** Current wind speed in m/s (hover to see current wind gust speed)